Regional Weather Roundup
Issued by NWS

Home | Current Version | Previous Version | Graphics & Text | Print | Product List | Glossary On
Versions: 1 2 3 4 5 6 7 8 9 10 11 12 13 14 15 16 17 18 19 20 21 22 23 24 25 26 27 28 29 30 31 32 33 34 35 36 37 38 39 40 41 42 43 44 45 46 47 48 49 50
000
ASUS43 KMKX 311511
RWRWI

WISCONSIN REGIONAL WEATHER ROUNDUP
NATIONAL WEATHER SERVICE MILWAUKEE/SULLIVAN WI
1000 AM CDT WED AUG 31 2016

NOTE: "FAIR" INDICATES FEW OR NO CLOUDS BELOW 12,000 FEET WITH NO
SIGNIFICANT WEATHER AND/OR OBSTRUCTIONS TO VISIBILITY.

WIZ001-002-006>008-014>016-023>028-311600-
NORTHWEST WISCONSIN

CITY           SKY/WX    TMP DP  RH WIND       PRES   REMARKS
SUPERIOR ARPT  SUNNY     65  56  72 CALM      30.21S
ASHLAND        MOSUNNY   69  58  67 VRB3      30.20R
HAYWARD        SUNNY     65  57  75 CALM      30.22R
SIREN          SUNNY     64  55  71 NW3       30.22S
CUMBERLAND     SUNNY     64  54  68 NW5       30.22R
RICE LAKE      SUNNY     65  56  72 NW3       30.23R
CHETEK         NOT AVBL
LADYSMITH      SUNNY     66  56  70 CALM      30.22R
EAU CLAIRE     SUNNY     67  55  65 VRB3      30.19R
MENOMONIE      SUNNY     66  56  70 NW3       30.21R
NEW RICHMOND   SUNNY     67  54  62 N3        30.22S
OSCEOLA        SUNNY     64  61  90 CALM      30.24S
$$

WIZ003>005-009-010-017-018-311600-
NORTH CENTRAL WISCONSIN

CITY           SKY/WX    TMP DP  RH WIND       PRES   REMARKS
MANITOWISH WTR NOT AVBL
ARBOR VITAE    SUNNY     66  56  70 N7        30.19S
WOODRUFF       SUNNY     66  56  70 N7        30.19S
RHINELANDER    SUNNY     67  57  70 NW6       30.19S
EAGLE RIVER    SUNNY     66  52  62 NW7       30.18S
LAND O LAKES   MOSUNNY   65  55  70 NW7       30.20S
PHILLIPS       SUNNY     65  58  78 N5        30.20R
TOMAHAWK       SUNNY     65  56  72 CALM      30.19S
MEDFORD        SUNNY     66  56  71 CALM      30.19R
MERRILL        SUNNY     66  57  72 NE5       30.19R
$$

WIZ029-030-035-036-043>047-311600-
CENTRAL WISCONSIN

CITY           SKY/WX    TMP DP  RH WIND       PRES   REMARKS
WAUSAU         SUNNY     65  55  70 N6        30.16S
MOSINEE        SUNNY     64  57  77 NW5       30.18R
MARSHFIELD     SUNNY     69  54  58 NE3       30.17S
STEVENS POINT  SUNNY     64  55  73 CALM      30.18R
WAUPACA        SUNNY     69  56  63 CALM      30.16S
WAUTOMA        SUNNY     69  52  54 N3        30.16S
WISC RAPIDS    SUNNY     68  56  65 NW5       30.18S
CAMP DOUGLAS   MOSUNNY   68  57  68 NW6       30.16S
$$

WIZ011>013-019>022-031-037>040-048>050-311600-
NORTHEAST WISCONSIN

CITY           SKY/WX    TMP DP  RH WIND       PRES   REMARKS
ANTIGO         SUNNY     65  55  71 NE5       30.18S
SHAWANO        SUNNY     68  57  68 N3        30.15S
OCONTO         NOT AVBL
STURGEON BAY   SUNNY     67  59  75 NW7       30.14R
GREEN BAY      SUNNY     67  58  72 N3        30.14R
MANITOWOC      SUNNY     69  56  62 MISG      30.13S
APPLETON       MOSUNNY   66  52  59 CALM      30.14R
CLINTONVILLE   SUNNY     66  54  63 NW6       30.15S
OSHKOSH        SUNNY     70  53  54 N6        30.13S
$$

WIZ032>034-041-042-053>061-311600-
SOUTHWEST WISCONSIN

CITY           SKY/WX    TMP DP  RH WIND       PRES   REMARKS
LA CROSSE      SUNNY     68  60  75 NW7       30.17S
SPARTA         SUNNY     64  58  79 N5        30.18S
VIROQUA        SUNNY     67  56  66 N7        30.18R
BOSCOBEL       SUNNY     70  57  63 NE5       30.16R
PRAIRIE DU CHI SUNNY     70  52  54 N3        30.16R
PLATTEVILLE    CLOUDY    65  65  99 NE6       30.15S
$$

WIZ056-057-062-063-064-067-068-311600-
SOUTH CENTRAL WISCONSIN

CITY           SKY/WX    TMP DP  RH WIND       PRES   REMARKS
REEDSBURG      NOT AVBL
BARABOO/DELLS  SUNNY     67  53  60 N6        30.15S
LONE ROCK      SUNNY     70  59  68 CALM      30.15S
MINERAL POINT  MOSUNNY   70  63  78 N10       30.15R
MADISON        MOSUNNY   69  60  73 N8        30.13S
MIDDLETON      MOSUNNY   69  60  71 NE6       30.14S
WATERTOWN      SUNNY     68  59  74 N8        30.12S
MONROE         CLOUDY    64  63  94 N6        30.13R
JANESVILLE     MOSUNNY   70  59  68 N8        30.11R
$$

WIZ051-052-058>065-066-070>072-311600-
SOUTHEAST WISCONSIN

CITY           SKY/WX    TMP DP  RH WIND       PRES   REMARKS
MILWAUKEE      MOSUNNY   71  59  65 N13       30.10R
WAUKESHA       SUNNY     66  57  72 N9        30.13S
MILWAUKEE/TIMM SUNNY     70  55  60 N10       30.11S
RACINE         CLOUDY    69  60  73 N13       30.11R
BURLINGTON     MOSUNNY   69  58  69 N7        30.10S
KENOSHA        MOSUNNY   70  61  73 N10       30.10R
FOND DU LAC    SUNNY     70  55  59 NE9       30.13F
SHEBOYGAN      SUNNY     71  54  54 N9        30.11F
WEST BEND      SUNNY     68  55  64 NE8       30.12R
JUNEAU         SUNNY     67  58  72 N12       30.14R
$$

LSZ147-162-311600-
LAKE SUPERIOR

STATION/POSITION TIME  TEMP    WIND        PRES    WAVE
                       AIR SEA DIR/SP/G            HT/PER
                 (UTC) (F)     (DEG/KT/KT) (MB)    (FT/S)
W MID LAKE BUOY  1450   65 67  340/  8/ 10 1021.4R   1/ 3
DEVILS ISLAND    1500   64     340/  6/  8 1022.6R
PORT WING        1240   56     160/  2/  3 1022.7
SAXON HARBOR     1440   65     320/  3/  5 1022.4R
$$

LMZ867-665-643>646-311600-
LAKE MICHIGAN

STATION/POSITION TIME  TEMP    WIND        PRES    WAVE
                       AIR SEA DIR/SP/G            HT/PER
                 (UTC) (F)     (DEG/KT/KT) (MB)    (FT/S)
CHAMBERS ISLAND  1400   67     340/  7/  8 1019.6S
N MID LAKE BUOY  1450   67 71  340/ 14/ 14 1018.7R   2/ 3
NORTHPORT PIER   1400   67     340/ 10/ 12 1019.6R
SISTER BAY       1407   69     360/ 13/ 15   N/A
ALGOMA LAKESHORE 1415          340/  7/  9   N/A
KEWAUNEE LAKESHO 1400   66     300/  4/  7 1019.3R
SHEBOYGAN LAKESH 1500   64     350/ 11/ 12 1019.2S
PORT WASHINGTON  1400   70     350/  4/  8 1020.0S
ATWATER BUOY     1400   65      10/ 14/ 19   N/A
MILWAUKEE LAKESH 1410   66     350/ 14/ 18   N/A
S MID LAKE BUOY  1450   70 75   40/ 17/ 21 1017.0R   4/ 6
KENOSHA   LAKESH 1500   67     360/ 14/ 16 1018.6R
$$

TC  - TEMPERATURE IN CELSIUS
VSB - VISIBILITY IN STATUTE MILES
WCI - WIND CHILL INDEX
HX  - HEAT INDEX





USA.gov is the U.S. government's official web portal to all federal, state and local government web resources and services.